Location: Moy Burn
(57.3833°N, 4.0667°W)
Time: 09:42:31
(UTC+00:00)

Okean 1-7 - Pass Details

Date: 08 August 2020
Orbit: 590 x 619 km, 82.5° (Epoch: 19 September)

Event Time Altitude Azimuth Distance (km) Brightness Sun altitude
Rises 22:35:41 0° 344° (NNW) 2,892 8.3 -13.6°
Reaches altitude 10° 22:37:58 10° 339° (NNW) 1,977 7.1 -13.7°
Maximum altitude 22:42:10 47° 266° (W) 806 3.8 -14.0°
Enters shadow 22:45:24 16° 196° (SSW) 1,606 4.7 -14.1°
